{"data":{"norad_id":48293,"epoch":"2026-09-19T13:15:34.790400Z","epoch_age_seconds":115444,"freshness":"FRESH","line1":"1 48293U 21036T   26262.55248600  .00000190  00000+0  17880-4 0  9993","line2":"2 48293  53.1608 253.2063 0001361  91.6247 268.4911 15.31705361298116","mean_motion":15.31705361,"eccentricity":0.0001361,"inclination_deg":53.1608,"raan_deg":253.2063,"arg_perigee_deg":91.6247,"mean_anomaly_deg":268.4911,"bstar":1.788e-5,"rev_number":29811,"period_min":94.012858913014,"perigee_km":469.79188442616,"apogee_km":471.65614439428,"semimajor_km":6848.8610144102,"source":"CELESTRAK","updated_at":"2026-09-20T09:00:38.930503Z"}}